This demonstration page uses our WeatherBlox Daily Observations layout. Learn more.

Hourly Observations for July 3, 2017

Temp ( °F °C ) Dew Point ( °F °C ) Humidity (%) Winds ( mph kmh ) Pressure ( in mb ) Visibility ( mi km ) Precip ( " mm )
12:15 am 00:15 Clear 73 23 72 22 94 94 Calm 30.03 1017 10 16.09344 0 0
12:35 am 00:35 Clear 75 24 72 22 89 89 W 3 6 30.03 1017 10 16.09344 0 0
12:55 am 00:55 Partly Cloudy 73 23 72 22 94 94 W 3 6 30.03 1017 10 16.09344 0 0
1:15 am 01:15 Partly Cloudy 73 23 72 22 94 94 Calm 30.03 1017 10 16.09344 0 0
1:35 am 01:35 Clear 72 22 72 22 100 100 W 3 6 30.03 1017 10 16.09344 0 0
1:55 am 01:55 Clear 73 23 72 22 94 94 NW 3 6 30.03 1017 10 16.09344 0 0
2:15 am 02:15 Clear 72 22 72 22 100 100 Calm 30.03 1017 10 16.09344 0 0
2:35 am 02:35 Clear 73 23 70 21 89 89 Calm 30.03 1017 10 16.09344 0 0
2:55 am 02:55 Clear 73 23 70 21 89 89 Calm 30.03 1017 10 16.09344 0 0
3:15 am 03:15 Clear 73 23 68 20 83 83 Calm 30 1016 10 16.09344 0 0
3:35 am 03:35 Clear 73 23 68 20 83 83 Calm 30.03 1017 10 16.09344 0 0
3:55 am 03:55 Clear 72 22 66 19 83 83 Calm 30.03 1017 10 16.09344 0 0
4:15 am 04:15 Clear 70 21 68 20 94 94 W 3 6 30.03 1017 10 16.09344 0 0
4:35 am 04:35 Clear 72 22 68 20 88 88 Calm 30.03 1017 10 16.09344 0 0
4:55 am 04:55 Clear 72 22 68 20 88 88 Calm 30.03 1017 10 16.09344 0 0
5:15 am 05:15 Clear 70 21 68 20 94 94 Calm 30.03 1017 10 16.09344 0 0
5:35 am 05:35 Partly Cloudy 70 21 68 20 94 94 Calm 30.03 1017 10 16.09344 0 0
5:55 am 05:55 Partly Cloudy 70 21 68 20 94 94 Calm 30.03 1017 10 16.09344 0 0
6:15 am 06:15 Partly Cloudy 70 21 68 20 94 94 Calm 30.06 1018 10 16.09344 0 0
6:35 am 06:35 Mostly Cloudy 72 22 68 20 88 88 Calm 30.06 1018 10 16.09344 0 0
6:55 am 06:55 Partly Cloudy 72 22 68 20 88 88 Calm 30.06 1018 10 16.09344 0 0
7:15 am 07:15 Sunny 73 23 70 21 89 89 Calm 30.06 1018 10 16.09344 0 0
7:35 am 07:35 Partly Cloudy 75 24 70 21 83 83 Calm 30.06 1018 10 16.09344 0 0
7:55 am 07:55 Mostly Cloudy 77 25 70 21 79 79 Calm 30.06 1018 10 16.09344 0 0
8:15 am 08:15 Cloudy 79 26 68 20 70 70 Calm 30.06 1018 10 16.09344 0 0
8:35 am 08:35 Partly Cloudy 79 26 68 20 70 70 Calm 30.06 1018 10 16.09344 0 0
8:55 am 08:55 Partly Cloudy 82 28 68 20 62 62 WNW 7 11 30.06 1018 10 16.09344 0 0
9:15 am 09:15 Partly Cloudy 84 29 68 20 58 58 NNW 10 17 30.06 1018 10 16.09344 0 0
9:35 am 09:35 Sunny 84 29 68 20 58 58 NW 7 11 30.06 1018 10 16.09344 0 0
9:55 am 09:55 Sunny 86 30 66 19 52 52 NNW 8 13 30.06 1018 10 16.09344 0 0
10:15 am 10:15 Sunny 86 30 64 18 49 49 NNW 9 15 30.06 1018 10 16.09344 0 0
10:35 am 10:35 Sunny 88 31 66 19 49 49 W 8 13 30.03 1017 10 16.09344 0 0
10:55 am 10:55 Sunny 86 30 64 18 49 49 N 8 13 30.06 1018 10 16.09344 0 0
11:15 am 11:15 Sunny 86 30 64 18 49 49 NNW 3 6 30.06 1018 10 16.09344 0 0
11:35 am 11:35 Sunny 88 31 64 18 46 46 WNW 10 17 30.03 1017 10 16.09344 0 0
11:55 am 11:55 Sunny 90 32 64 18 43 43 WNW 14 22 30.03 1017 10 16.09344 0 0
12:15 pm 12:15 Partly Cloudy 88 31 63 17 43 43 N 8 13 30.03 1017 10 16.09344 0 0
12:35 pm 12:35 Partly Cloudy 88 31 64 18 46 46 N 7 11 30.03 1017 10 16.09344 0 0
12:55 pm 12:55 Sunny 90 32 63 17 41 41 NW 3 6 30.03 1017 10 16.09344 0 0
1:15 pm 13:15 Sunny 90 32 61 16 38 38 NNW 5 7 30.03 1017 10 16.09344 0 0
1:35 pm 13:35 Sunny 90 32 61 16 38 38 NNW 10 17 30.03 1017 10 16.09344 0 0
1:55 pm 13:55 Sunny 91 33 61 16 36 36 NNW 8 13 30.03 1017 10 16.09344 0 0
2:15 pm 14:15 Sunny 91 33 61 16 36 36 NNW 5 7 30 1016 10 16.09344 0 0
2:35 pm 14:35 Partly Cloudy 90 32 63 17 41 41 W 6 9 30 1016 10 16.09344 0 0
2:55 pm 14:55 Partly Cloudy 90 32 61 16 38 38 N 5 7 30 1016 10 16.09344 0 0
3:15 pm 15:15 Sunny 91 33 63 17 38 38 SW 6 9 30 1016 10 16.09344 0 0
3:35 pm 15:35 Sunny 91 33 63 17 38 38 WSW 7 11 30 1016 10 16.09344 0 0
3:55 pm 15:55 Sunny 91 33 63 17 38 38 SW 7 11 30 1016 10 16.09344 0 0
4:15 pm 16:15 Sunny 91 33 63 17 38 38 WSW 6 9 30 1016 10 16.09344 0 0
4:35 pm 16:35 Sunny 90 32 63 17 41 41 Calm 30 1016 10 16.09344 0 0
4:55 pm 16:55 Sunny 90 32 63 17 41 41 SSW 3 6 30 1016 10 16.09344 0 0
5:15 pm 17:15 Sunny 90 32 63 17 41 41 S 5 7 30 1016 10 16.09344 0 0
5:35 pm 17:35 Sunny 90 32 63 17 41 41 Calm 30 1016 10 16.09344 0 0
5:55 pm 17:55 Sunny 90 32 64 18 43 43 SSW 5 7 29.97 1015 10 16.09344 0 0
6:15 pm 18:15 Sunny 90 32 68 20 49 49 SSW 3 6 30 1016 10 16.09344 0 0
6:35 pm 18:35 Sunny 90 32 66 19 46 46 SW 5 7 30 1016 10 16.09344 0 0
6:55 pm 18:55 Sunny 88 31 68 20 52 52 SSW 6 9 30 1016 10 16.09344 0 0
7:15 pm 19:15 Sunny 88 31 68 20 52 52 SW 5 7 30 1016 10 16.09344 0 0
7:35 pm 19:35 Sunny 86 30 68 20 55 55 SSW 3 6 30.03 1017 10 16.09344 0 0
7:55 pm 19:55 Sunny 86 30 68 20 55 55 Calm 30.03 1017 10 16.09344 0 0
8:15 pm 20:15 Sunny 84 29 68 20 58 58 SW 3 6 30.03 1017 10 16.09344 0 0
8:35 pm 20:35 Sunny 82 28 68 20 62 62 SW 3 6 30.03 1017 10 16.09344 0 0
8:55 pm 20:55 Clear 82 28 68 20 62 62 SW 5 7 30.03 1017 10 16.09344 0 0
9:15 pm 21:15 Clear 81 27 70 21 70 70 SSW 3 6 30.03 1017 10 16.09344 0 0
9:35 pm 21:35 Clear 79 26 70 21 74 74 SW 3 6 30.03 1017 10 16.09344 0 0
9:55 pm 21:55 Clear 77 25 70 21 79 79 WSW 3 6 30.06 1018 10 16.09344 0 0
10:15 pm 22:15 Clear 75 24 70 21 83 83 WSW 3 6 30.06 1018 10 16.09344 0 0
10:35 pm 22:35 Clear 75 24 70 21 83 83 WSW 3 6 30.06 1018 10 16.09344 0 0
10:55 pm 22:55 Clear 75 24 70 21 83 83 SW 3 6 30.06 1018 10 16.09344 0 0
11:15 pm 23:15 Clear 75 24 70 21 83 83 Calm 30.06 1018 10 16.09344 0 0
11:35 pm 23:35 Clear 73 23 70 21 89 89 W 5 7 30.06 1018 10 16.09344 0 0
11:55 pm 23:55 Clear 72 22 70 21 94 94 W 5 7 30.06 1018 10 16.09344 0 0

Powered by AerisWeather